User: anonymous   Login
Location: Caltech
(34.1382°N, 118.1253°W)
Time: 17:36:51
(UTC-07:00)
Language:

SO-50 - Orbit

View from above orbital plane
View from above orbital plane
View from above satellite
View from above satellite

Ground track
Ground track

The orbit data is extracted from the following two-line orbital elements,

1 27607U 02058C   14297.13892756  .00002318  00000-0  36113-3 0  5549
2 27607 064.5569 199.1874 0062895 337.0441 022.7851 14.74042663636489
Epoch (UTC): 24 October 2014 03:20:03
Eccentricity: 0.0062895
inclination: 64.5569°
perigee height: 604 km
apogee height: 692 km
right ascension of ascending node: 199.1874°
argument of perigee: 337.0441°
revolutions per day: 14.74042663
mean anomaly at epoch: 22.7851°
orbit number at epoch: 63648

The dashed part of the orbit path shows where the satellite is in the earth's shadow,  

DLR